WB5LJO-13 Weather Reports


time (UTC)temp
F
wind
direction
speed
knots
gust
knots
rain 1hr
in
rain 24hr
in
rain mn
in
humidity
%
barometer
mb
20260506135818 64 340 1.7 0.0 0.44 0.00 0.00 35
20260506135318 64 17 6.1 0.0 0.44 0.00 0.00 28
20260506134818 64 353 2.6 0.0 0.44 0.00 0.00 34
20260506134318 63 15 0.0 0.0 0.44 0.00 0.00 35
20260506133818 63 35 0.0 0.0 0.44 0.00 0.00 38
20260506133319 62 35 0.0 0.0 0.44 0.00 0.00 38
20260506132818 62 359 0.0 0.0 0.44 0.00 0.00 39
20260506132317 61 359 0.0 0.0 0.44 0.00 0.00 39
20260506131818 61 18 0.0 0.0 0.44 0.00 0.00 40
20260506131318 60 39 0.0 0.0 0.44 0.00 0.00 41
20260506130818 60 39 0.0 0.0 0.44 0.00 0.00 40
20260506130318 59 21 0.0 0.0 0.44 0.00 0.00 39
20260506125818 59 21 0.0 0.0 0.44 0.00 0.00 41
20260506125318 59 21 0.0 0.0 0.44 0.00 0.00 40
20260506124819 58 21 0.0 0.0 0.44 0.00 0.00 41
20260506124318 58 21 0.0 0.0 0.44 0.00 0.00 41
20260506123818 58 311 0.0 0.0 0.44 0.00 0.00 43
20260506123318 58 311 0.0 0.0 0.44 0.00 0.00 42
20260506122817 58 60 0.0 0.0 0.44 0.00 0.00 42
20260506122318 59 24 4.3 0.0 0.44 0.00 0.00 42
20260506121818 59 17 0.0 0.0 0.44 0.00 0.00 41
20260506121318 59 17 0.0 0.0 0.44 0.00 0.00 41
20260506120818 59 34 3.5 0.0 0.44 0.00 0.00 41
20260506120319 60 59 0.0 0.0 0.44 0.00 0.00 40
20260506115818 60 315 3.5 0.0 0.44 0.00 0.00 39
20260506115318 60 8 7.0 0.0 0.44 0.00 0.00 39
20260506114818 61 24 0.0 0.0 0.44 0.00 0.00 30
20260506114319 61 290 7.8 0.0 0.44 0.00 0.00 30
20260506113818 61 359 5.2 0.0 0.44 0.00 0.00 37
20260506113318 61 270 6.1 0.0 0.44 0.00 0.00 37
20260506112818 62 319 2.6 0.0 0.44 0.00 0.00 37
20260506112318 62 359 4.3 0.0 0.44 0.00 0.00 37
20260506111818 62 356 2.6 0.0 0.44 0.00 0.00 37
20260506111318 62 18 3.5 0.0 0.44 0.00 0.00 37
20260506110818 62 349 0.0 0.0 0.44 0.00 0.00 36
20260506110318 62 359 0.0 0.0 0.44 0.00 0.00 36
20260506105817 62 280 7.0 0.0 0.44 0.00 0.00 36
20260506105318 62 285 7.8 0.0 0.44 0.00 0.00 36
20260506104817 62 343 7.0 0.0 0.44 0.00 0.00 35
20260506104317 62 315 8.7 0.0 0.44 0.00 0.00 35
20260506103818 62 308 8.7 0.0 0.44 0.00 0.00 35
20260506103317 62 1 4.3 0.0 0.44 0.00 0.00 35
20260506102817 62 347 8.7 0.0 0.44 0.00 0.00 35
20260506102317 62 1 0.0 0.0 0.44 0.00 0.00 35
20260506101818 62 301 0.0 0.0 0.44 0.00 0.00 35
20260506101318 63 322 7.8 0.0 0.44 0.00 0.00 34
20260506100817 63 300 7.8 0.0 0.44 0.00 0.00 34
20260506100318 63 283 14.8 0.0 0.44 0.00 0.00 34
20260506095818 63 312 7.8 0.0 0.44 0.00 0.00 34
20260506095317 63 302 5.2 0.0 0.44 0.00 0.00 34
20260506094818 63 354 5.2 0.0 0.44 0.00 0.00 34
20260506093817 63 319 6.1 0.0 0.44 0.00 0.00 33
20260506093318 63 350 6.1 0.0 0.44 0.00 0.00 33
20260506092817 63 323 5.2 0.0 0.44 0.00 0.00 33
20260506092317 63 353 6.1 0.0 0.44 0.00 0.00 33
20260506091817 63 314 9.6 0.0 0.44 0.00 0.00 33
20260506091317 63 278 7.8 0.0 0.44 0.00 0.00 33
20260506090817 64 302 2.6 0.0 0.44 0.00 0.00 34
20260506090318 64 359 4.3 0.0 0.44 0.00 0.00 34
20260506085817 64 359 2.6 0.0 0.44 0.00 0.00 34
20260506085317 64 322 6.1 0.0 0.44 0.00 0.00 34
20260506084817 64 283 7.0 0.0 0.44 0.00 0.00 34
20260506084317 64 307 8.7 0.0 0.44 0.00 0.00 34
20260506083817 64 53 5.2 0.0 0.44 0.00 0.00 33
20260506083318 65 350 2.6 0.0 0.44 0.00 0.00 33
20260506082817 65 319 7.0 0.0 0.44 0.00 0.00 32
20260506082317 65 319 0.0 0.0 0.44 0.00 0.00 31
20260506081318 66 312 7.0 0.0 0.44 0.00 0.00 28
20260506080818 66 332 0.0 0.0 0.44 0.00 0.00 26
20260506080319 66 315 4.3 0.0 0.44 0.00 0.00 26
20260506073318 68 266 4.3 0.0 0.44 0.00 0.00 23
20260506072818 68 340 5.2 0.0 0.44 0.00 0.00 23
20260506072318 68 308 10.4 0.0 0.44 0.00 0.00 23
20260506071818 68 260 6.1 0.0 0.44 0.00 0.00 23
20260506071318 68 273 7.0 0.0 0.44 0.00 0.00 23
20260506070817 68 180 6.1 0.0 0.44 0.00 0.00 23
20260506070318 68 1 0.0 0.0 0.44 0.00 0.00 23
20260506062318 69 281 8.7 0.0 0.44 0.00 0.00 23
20260506061818 69 314 8.7 0.0 0.44 0.00 0.00 22
20260506061319 69 283 7.8 0.0 0.44 0.00 0.00 22
20260506060818 69 210 8.7 0.0 0.44 0.00 0.00 22
20260506060318 69 256 9.6 0.0 0.44 0.00 0.00 21
20260506051318 70 262 7.0 0.0 0.44 0.00 0.00 21
20260506050818 70 225 12.2 0.0 0.44 0.00 0.00 21
20260506050318 70 248 9.6 0.0 0.44 0.00 0.00 20
20260506044818 71 218 13.0 0.0 0.44 0.00 0.00 19
20260506044318 71 253 9.6 0.0 0.44 0.00 0.00 18
20260506043818 71 294 14.8 0.0 0.44 0.00 0.00 18
20260506043318 71 248 8.7 0.0 0.44 0.00 0.00 18
20260506042818 71 240 10.4 0.0 0.44 0.00 0.00 18
20260506042318 71 246 7.8 0.0 0.44 0.00 0.00 17
20260506041818 71 280 4.3 0.0 0.44 0.00 0.00 17
20260506041318 71 240 8.7 0.0 0.44 0.00 0.00 17
20260506040818 72 211 5.2 0.0 0.44 0.00 0.00 16
20260506040318 72 236 15.6 0.0 0.44 0.00 0.00 16
20260506035818 72 245 6.1 0.0 0.44 0.00 0.00 15
20260506035318 72 266 12.2 0.0 0.44 0.00 0.00 15
20260506034818 72 253 7.8 0.0 0.44 0.00 0.00 15
20260506034319 72 266 7.8 0.0 0.44 0.00 0.00 15
20260506033818 72 300 6.1 0.0 0.44 0.00 0.00 16
20260506033319 72 287 7.8 0.0 0.44 0.00 0.00 17
20260506032818 72 226 3.5 0.0 0.44 0.00 0.00 18
20260506032318 73 270 5.2 0.0 0.44 0.00 0.00 18
20260506031818 73 271 14.8 0.0 0.44 0.00 0.00 17
20260506031318 73 14 7.0 0.0 0.44 0.00 0.00 17
20260506030818 73 207 6.1 0.0 0.44 0.00 0.00 17
20260506030318 73 217 7.0 0.0 0.44 0.00 0.00 17
20260506025818 73 1 10.4 0.0 0.44 0.00 0.00 17
20260506025319 73 291 4.3 0.0 0.44 0.00 0.00 17
20260506024818 73 276 4.3 0.0 0.44 0.00 0.00 18
20260506024318 73 197 13.9 0.0 0.44 0.00 0.00 18
20260506023818 74 266 3.5 0.0 0.44 0.00 0.00 19
20260506023318 74 339 5.2 0.0 0.44 0.00 0.00 19
20260506022818 74 263 10.4 0.0 0.44 0.00 0.00 19
20260506022318 74 252 0.0 0.0 0.44 0.00 0.00 19
20260506021818 74 323 7.0 0.0 0.44 0.00 0.00 19
20260506021318 74 271 1.7 0.0 0.44 0.00 0.00 19
20260506020818 74 287 4.3 0.0 0.44 0.00 0.00 18
20260506020318 74 242 8.7 0.0 0.44 0.00 0.00 18
20260506015818 74 332 6.1 0.0 0.44 0.00 0.00 18
20260506015318 74 264 0.0 0.0 0.44 0.00 0.00 18
20260506014818 75 203 13.9 0.0 0.44 0.00 0.00 18
20260506014318 75 217 9.6 0.0 0.44 0.00 0.00 18
20260506013818 75 293 7.0 0.0 0.44 0.00 0.00 18
20260506013318 75 270 7.0 0.0 0.44 0.00 0.00 13
20260506012818 75 248 2.6 0.0 0.44 0.00 0.00 13
20260506012318 75 249 7.8 0.0 0.44 0.00 0.00 13
20260506011818 75 273 8.7 0.0 0.44 0.00 0.00 13
20260506011319 76 281 5.2 0.0 0.44 0.00 0.00 14
20260506010818 76 250 7.0 0.0 0.44 0.00 0.00 15
20260506010318 76 238 9.6 0.0 0.44 0.00 0.00 15
20260506005818 76 177 13.0 0.0 0.44 0.00 0.00 15
20260506005318 76 215 6.1 0.0 0.44 0.00 0.00 20
20260506004818 76 231 4.3 0.0 0.44 0.00 0.00 15
20260506004318 76 256 7.8 0.0 0.44 0.00 0.00 20
20260506003818 76 314 6.1 0.0 0.44 0.00 0.00 20
20260506003318 76 267 8.7 0.0 0.44 0.00 0.00 20
20260506002818 76 293 7.0 0.0 0.44 0.00 0.00 20
20260506002318 76 243 13.9 0.0 0.44 0.00 0.00 15
20260506001818 76 238 8.7 0.0 0.44 0.00 0.00 17
20260506001319 76 284 2.6 0.0 0.44 0.00 0.00 23
20260506000818 76 359 2.6 0.0 0.44 0.00 0.00 23
20260506000318 76 307 7.0 0.0 0.44 0.00 0.00 23
20260505235819 76 359 5.2 0.0 0.44 0.00 0.00 24
20260505235318 76 250 9.6 0.0 0.44 0.00 0.00 24
20260505234819 76 294 5.2 0.0 0.44 0.00 0.00 24
20260505234319 76 325 8.7 0.0 0.44 0.00 0.00 24
20260505233818 76 250 7.8 0.0 0.44 0.00 0.00 24
20260505233318 76 323 6.1 0.0 0.44 0.00 0.00 25
20260505232818 76 291 5.2 0.0 0.44 0.00 0.00 26
20260505232318 76 301 3.5 0.0 0.44 0.00 0.00 27
20260505231818 76 318 0.0 0.0 0.44 0.00 0.00 27
20260505231318 76 20 7.0 0.0 0.44 0.00 0.00 21
20260505230818 76 345 3.5 0.0 0.44 0.00 0.00 22
20260505230318 76 263 0.0 0.0 0.44 0.00 0.00 22
20260505225818 76 228 0.0 0.0 0.44 0.00 0.00 16
20260505225318 75 333 8.7 0.0 0.44 0.00 0.00 16
20260505224817 76 255 7.0 0.0 0.44 0.00 0.00 22
20260505224318 76 307 6.1 0.0 0.44 0.00 0.00 28
20260505223818 76 249 3.5 0.0 0.44 0.00 0.00 28
20260505223317 76 284 7.0 0.0 0.44 0.00 0.00 28
20260505222817 76 300 4.3 0.0 0.44 0.00 0.00 28
20260505222317 76 300 7.8 0.0 0.44 0.00 0.00 28
20260505221817 76 312 13.0 0.0 0.44 0.00 0.00 28
20260505221319 76 332 10.4 0.0 0.44 0.00 0.00 29
20260505220819 77 318 10.4 0.0 0.44 0.00 0.00 27
20260505220817 76 259 3.5 0.0 0.44 0.00 0.00 28
20260505220317 77 318 10.4 0.0 0.44 0.00 0.00 27
20260505215819 77 221 8.7 0.0 0.44 0.00 0.00 20
20260505215319 77 264 0.0 0.0 0.44 0.00 0.00 21
20260505214818 77 316 5.2 0.0 0.44 0.00 0.00 21
20260505214318 77 276 12.2 0.0 0.44 0.00 0.00 22
20260505213818 76 338 6.1 0.0 0.44 0.00 0.00 22
20260505213317 76 269 4.3 0.0 0.44 0.00 0.00 29
20260505212817 76 4 3.5 0.0 0.44 0.00 0.00 29
20260505212318 76 308 13.9 0.0 0.44 0.00 0.00 31
20260505211818 75 278 5.2 0.0 0.44 0.00 0.00 31
20260505211318 75 302 7.0 0.0 0.44 0.00 0.00 31
20260505210817 75 328 6.1 0.0 0.44 0.00 0.00 30
20260505210317 75 0 4.3 0.0 0.44 0.00 0.00 31
20260505205817 75 325 7.0 0.0 0.44 0.00 0.00 30
20260505205318 76 8 6.1 0.0 0.44 0.00 0.00 29
20260505204818 76 293 4.3 0.0 0.44 0.00 0.00 30
20260505204317 76 269 0.0 0.0 0.44 0.00 0.00 29
20260505203817 76 354 5.2 0.0 0.44 0.00 0.00 30
20260505203318 76 359 5.2 0.0 0.44 0.00 0.00 31
20260505202818 75 326 2.6 0.0 0.44 0.00 0.00 32
20260505202317 75 359 2.6 0.0 0.44 0.00 0.00 32
20260505201818 75 318 2.6 0.0 0.44 0.00 0.00 31
20260505201318 74 15 3.5 0.0 0.44 0.00 0.00 32
20260505200317 74 20 8.7 0.0 0.44 0.00 0.00 32
20260505195818 74 263 3.5 0.0 0.44 0.00 0.00 32
20260505195318 74 13 4.3 0.0 0.44 0.00 0.00 31
20260505194817 75 188 6.1 0.0 0.44 0.00 0.00 31
20260505194318 75 312 6.1 0.0 0.44 0.00 0.00 30
20260505193818 75 188 4.3 0.0 0.44 0.00 0.00 29
20260505193317 76 233 8.7 0.0 0.44 0.00 0.00 29
20260505192818 75 262 5.2 0.0 0.44 0.00 0.00 29
20260505192317 75 215 7.0 0.0 0.44 0.00 0.00 29
20260505191817 74 301 10.4 0.0 0.44 0.00 0.00 30
20260505191318 74 287 15.6 0.0 0.44 0.00 0.00 30
20260505190817 73 248 4.3 0.0 0.44 0.00 0.00 30
20260505190318 73 304 5.2 0.0 0.44 0.00 0.00 30
20260505185818 73 194 10.4 0.0 0.44 0.00 0.00 29
20260505185318 74 252 9.6 0.0 0.44 0.00 0.00 28
20260505184818 74 204 11.3 0.0 0.44 0.00 0.00 28
20260505184317 74 228 11.3 0.0 0.44 0.00 0.00 27
20260505183818 75 221 14.8 0.0 0.44 0.00 0.00 27
20260505183318 74 180 14.8 0.0 0.44 0.00 0.00 28
20260505182818 74 276 10.4 0.0 0.44 0.00 0.00 27
20260505182318 74 295 4.3 0.0 0.44 0.00 0.00 27
20260505181817 75 314 7.8 0.0 0.44 0.00 0.00 27
20260505181319 75 288 4.3 0.0 0.44 0.00 0.00 28
20260505180818 76 14 0.0 0.0 0.44 0.00 0.00 28
20260505180318 75 11 6.1 0.0 0.44 0.00 0.00 28
20260505175818 75 305 4.3 0.0 0.44 0.00 0.00 29
20260505175318 74 248 7.8 0.0 0.44 0.00 0.00 29
20260505174818 74 288 0.0 0.0 0.44 0.00 0.00 28
20260505174318 74 269 8.7 0.0 0.44 0.00 0.00 29
20260505173818 74 236 8.7 0.0 0.44 0.00 0.00 30
20260505173319 74 194 5.2 0.0 0.44 0.00 0.00 31
20260505172818 74 253 7.0 0.0 0.44 0.00 0.00 33
20260505172318 73 319 5.2 0.0 0.44 0.00 0.00 33
20260505171818 72 224 4.3 0.0 0.44 0.00 0.00 34
20260505171318 72 235 7.0 0.0 0.44 0.00 0.00 35
20260505170817 71 240 7.8 0.0 0.44 0.00 0.00 35
20260505170319 71 314 0.0 0.0 0.44 0.00 0.00 36
20260505165817 70 263 5.2 0.0 0.44 0.00 0.00 36
20260505165318 69 273 2.6 0.0 0.44 0.00 0.00 37
20260505164817 69 305 0.0 0.0 0.44 0.00 0.00 36
20260505164318 69 204 9.6 0.0 0.44 0.00 0.00 36
20260505163818 70 255 6.1 0.0 0.44 0.00 0.00 35
20260505163318 70 179 2.6 0.0 0.44 0.00 0.00 35
20260505162818 70 267 4.3 0.0 0.44 0.00 0.00 35
20260505162317 70 120 0.0 0.0 0.44 0.00 0.00 37
20260505161819 69 120 0.0 0.0 0.44 0.00 0.00 37
20260505161318 68 204 3.5 0.0 0.44 0.00 0.00 38
20260505160818 68 257 5.2 0.0 0.44 0.00 0.00 39
20260505160318 68 136 4.3 0.0 0.44 0.00 0.00 40
20260505153319 67 35 0.0 0.0 0.44 0.00 0.00 42
20260505152818 67 35 0.0 0.0 0.44 0.00 0.00 42
20260505152318 67 37 0.0 0.0 0.44 0.00 0.00 42
20260505151817 67 13 4.3 0.0 0.44 0.00 0.00 41
20260505151319 67 336 2.6 0.0 0.44 0.00 0.00 31
20260505150818 66 46 5.2 0.0 0.44 0.00 0.00 39
20260505150319 66 4 6.1 0.0 0.44 0.00 0.00 39